Regional Weather Roundup
Issued by NWS

Home | Current Version | Previous Version | Text Only | Print | Product List | Glossary Off
Versions: 1 2 3 4 5 6 7 8 9 10 11 12 13 14 15 16 17 18 19 20 21 22 23 24 25 26 27 28 29 30 31 32 33 34 35 36 37 38 39 40 41 42 43 44 45 46 47 48 49 50

000
ASUS45 KBOU 261207
RWRCO

WEATHER ROUNDUP FOR COLORADO
NATIONAL WEATHER SERVICE DENVER/BOULDER CO
600 AM MDT FRI MAY 26 2017

NOTE: "FAIR" INDICATES FEW OR NO CLOUDS BELOW 12000 FEET WITH NO
SIGNIFICANT WEATHER AND/OR OBSTRUCTIONS TO VISIBILITY.

COZ001>005-013-030-031-261300-
...NORTHWEST COLORADO...

CITY           SKY/WX    TMP DP  RH WIND       PRES   REMARKS
CRAIG          FAIR      42  36  79 VRB7      29.91F
HAYDEN         FAIR      37  32  81 E13       29.93F
MEEKER         MOCLDY    45  40  82 NE10      29.90F
RABBIT EARS PA FAIR      32  32 100 S8        30.08F WCI  25
STEAMBOAT SPGS FAIR      35  33  95 CALM      29.96S
WALDEN           N/A     34  32  93 SE5       30.03S WCI  30
$$

COZ006>008-011-261300-
...WEST CENTRAL VALLEYS...

CITY           SKY/WX    TMP DP  RH WIND       PRES   REMARKS
GRAND JUNCTION FAIR      56  41  57 E12       29.84F
MONTROSE       FAIR      49  40  71 SE8       29.95R
EAGLE          FAIR      43  41  93 NE5       30.01S
RIFLE          FAIR      49  42  77 CALM      29.91S
DELTA          FAIR      53  44  71 E8        29.91R
NUCLA          FAIR      48  34  57 E7        29.95R
$$

COZ017>023-064>068-261300-
...SOUTHWEST COLORADO...

CITY           SKY/WX    TMP DP  RH WIND       PRES   REMARKS
DURANGO          N/A    N/A N/A N/A MISG      30.02R
CORTEZ         FAIR      48  26  42 E5        29.95R
PAGOSA SPRINGS FAIR      41  28  59 NE3       30.07R
TELLURIDE      CLOUDY    46  28  51 CALM      30.10S
WOLF CREEK PAS FAIR      32  19  59 S15G23    30.27R WCI  22
$$

COZ009-010-012-014-032>034-037-058>063-261300-
...CENTRAL COLORADO...

CITY           SKY/WX    TMP DP  RH WIND       PRES   REMARKS
ASPEN          MOCLDY    42  39  89 S7        30.03F
BUENA VISTA    FAIR      41  36  81 NW7       30.07R
COPPER MTN     LGT SNOW  34  28  80 SW21G35   30.19R WCI  22
BERTHOUD PASS  FAIR      27  16  63 W17G32    30.18R WCI  14
COTTONWOOD PAS FAIR      41  32  70 SW7       30.13R
GUNNISON       FAIR      38  37  97 N5        30.07S
KREMMLING      FOG       37  36  93 CALM      30.05R VSB 1
LEADVILLE      MOCLDY    33  32  96 S3        30.11R
SALIDA         FAIR      47  38  69 NW6       30.13R
SUNLIGHT       MOCLDY    32  32 100 SW12G20   30.15R WCI  23
WILKERSON PASS FAIR      32  28  86 W7        30.19S WCI  26
$$

COZ069>075-261300-
...SAN LUIS VALLEY/SANGRE DE CRISTO MOUNTAINS...

CITY           SKY/WX    TMP DP  RH WIND       PRES   REMARKS
ALAMOSA        FAIR      37  32  82 SW7       30.05R
DEL NORTE      FAIR      36  30  77 W10       30.07S
LA VETA PASS   FAIR      37  28  70 SW15G21   30.27S
SAGUACHE       FAIR      41  34  75 W3        30.07R
$$

COZ035-036-038>040-261300-
...NORTHERN COLORADO FRONT RANGE...

CITY           SKY/WX    TMP DP  RH WIND       PRES   REMARKS
DENVER INTL AP FAIR      45  43  93 CALM      29.99S FOG
DMNS CITY PARK   N/A     48  47  95 E1        29.99R
AURORA         MOCLDY    45  45 100 NE3       30.00R
FRONT RANGE AP FAIR      45  45 100 N5        29.99S FOG
ERIE MUNI ARPT CLOUDY    47  45  92 CALM      29.99S
BOULDER MUN AP CLOUDY    45  45 100 CALM      29.99R
CENTENNIAL     FAIR      44  43  96 NE3       29.99R
BROOMFIELD     CLOUDY    46  45  93 NE7       29.99R
FORT COLLINS   CLOUDY    47  40  76 CALM      30.00R
LONGMONT       CLOUDY    48  45  89 N5        30.00S
$$

COZ041-046-047-076>085-087-088-261300-
...PIKES PEAK/PALMER DIVIDE AND SOUTHERN FOOTHILLS...

CITY           SKY/WX    TMP DP  RH WIND       PRES   REMARKS
COLO. SPRINGS  FAIR      45  43  93 W6        30.01R
A. F. ACADEMY  FAIR      40  39  95 N6        30.00S
SCHRIEVER AFB  FAIR      46  40  81 NW8       30.00R
CHEYENNE MTN   FAIR      45  42  89 CALM      29.97R
ELLICOTT       FAIR     N/A N/A N/A N6        29.98S
FALCON         FAIR      42  40  94 W5        30.02S
FORT CARSON    FAIR      46  43  89 NW3       29.99R
LIMON          FAIR      42  42 100 W5        29.97R
MONUMENT HILL  FAIR      37  37 100 S7        30.03R
CANON CITY     NOT AVBL
WALSENBURG     NOT AVBL
TRINIDAD       MOCLDY    42  39  89 NW8       30.02R
$$

COZ042>045-048>051-090-091-261300-
...NORTHEAST COLORADO...

CITY           SKY/WX    TMP DP  RH WIND       PRES   REMARKS
GREELEY ARPT   FAIR      44  39  82 NW6       30.00R
AKRON          FAIR      43  40  89 N7        29.97R
BURLINGTON     CLOUDY    53  51  93 S3        29.90F
WRAY           FAIR      50  45  81 N8        29.94R
YUMA           FAIR      45  36  70 N8        29.95R
STERLING       FAIR      43  41  93 CALM      29.95R
HOLYOKE        NOT AVBL
FORT MORGAN    FAIR      43  37  78 W5        29.99R
$$

COZ086-089-092>099-261300-
...SOUTHEAST COLORADO...

CITY           SKY/WX    TMP DP  RH WIND       PRES   REMARKS
PUEBLO         FAIR      49  44  83 NW6       29.97R
LA JUNTA       FAIR      51  46  83 SW8       29.93R
LAMAR          FAIR      54  45  71 E6        29.87F
SPRINGFIELD      N/A     50  47  89 N14       29.93R
$$



USA.gov is the U.S. government's official web portal to all federal, state and local government web resources and services.